Home   Weather   Riga   Past weeks
Flag for Latvia

Past Weather in Riga, Latvia — Yesterday and Last 2 Weeks

Now
72 °F

Sunny.


Feels Like: 76 °F
Forecast: 81 / 60 °F
Wind: 7 mph from South

Location: Riga Airport

Current Time: Jun 20, 2019 at 8:23:26 am

Latest Report: Jun 20, 2019 at 7:50 am


Visibility: 10 mi

Pressure: 29.89 "Hg

Humidity: 57%

Dew Point: 55 °F

Location of RigaLocation

Past Weather in Riga — Graph

°F

Riga Temperature Yesterday

Maximum temperature yesterday: 82 °F (at 3:50 pm)
Minimum temperature yesterday: 50 °F (at 2:50 am)
Average temperature yesterday: 70 °F

High & Low Weather Summary for the Past Weeks

 TemperatureHumidityPressure
High93 °F (Jun 13, 3:20 pm)100% (Jun 10, 2:50 am)30.27 "Hg (Jun 10, 2:50 am)
Low45 °F (Jun 10, 4:50 am)32% (Jun 13, 4:20 pm)29.89 "Hg (Jun 20, 4:20 am)
Average70 °F68%30.05 "Hg
* Reported Jun 5 6:20 am — Jun 20 6:50 am, Riga. Weather by CustomWeather, © 2019

Note: Actual official high and low records may vary slightly from our data, if they occured in-between our weather recording intervals... More about our weather records

Advertising

Riga Weather History for the Previous 24 Hours

Scroll right to see more
 ConditionsComfort  
Time TempWeatherWind HumidityBarometerVisibility
6:50 am
Thu, Jun 20
68 °FPassing clouds.3 mph64%29.89 "HgN/A
6:20 am64 °FSunny.2 mph73%29.89 "Hg10 mi
5:50 am63 °FSunny.No wind73%29.89 "Hg10 mi
5:20 am63 °FSunny.1 mph73%29.89 "Hg10 mi
4:20 am61 °FClear.No wind83%29.89 "Hg10 mi
3:50 am59 °FClear.No wind88%29.92 "Hg10 mi
3:20 am59 °FClear.1 mph88%29.92 "Hg10 mi
2:50 am61 °FClear.No wind83%29.92 "Hg10 mi
2:20 am63 °FClear.2 mph77%29.92 "Hg10 mi
1:50 am61 °FClear.No wind83%29.92 "Hg10 mi
1:20 am61 °FClear.No wind83%29.92 "Hg10 mi
12:50 am61 °FClear.No wind83%29.92 "Hg10 mi
12:20 am63 °FClear.No wind77%29.92 "Hg10 mi
11:50 pm
Wed, Jun 19
63 °FPassing clouds.3 mph77%29.92 "HgN/A
11:20 pm66 °FClear.1 mph68%29.92 "Hg10 mi
10:50 pm70 °FClear.2 mph60%29.92 "Hg10 mi
10:20 pm72 °FSunny.2 mph53%29.92 "Hg10 mi
9:50 pm73 °FPassing clouds.3 mph53%29.92 "HgN/A
9:20 pm75 °FPassing clouds.6 mph50%29.92 "HgN/A
8:50 pm77 °FSunny.7 mph44%29.92 "Hg10 mi
8:20 pm79 °FPassing clouds.5 mph45%29.92 "HgN/A
7:50 pm81 °FSunny.2 mph42%29.95 "Hg10 mi
7:20 pm81 °FPassing clouds.6 mph42%29.95 "HgN/A
6:50 pm82 °FPassing clouds.5 mph35%29.95 "HgN/A
6:20 pm82 °FSunny.7 mph35%29.95 "Hg10 mi
5:50 pm81 °FPassing clouds.6 mph39%29.95 "HgN/A
5:20 pm82 °FPassing clouds.9 mph35%29.98 "HgN/A
4:50 pm81 °FSunny.9 mph37%29.98 "Hg10 mi
4:20 pm81 °FPassing clouds.10 mph37%29.98 "HgN/A
3:50 pm82 °FPassing clouds.10 mph37%29.98 "HgN/A
3:20 pm81 °FPassing clouds.13 mph37%29.98 "HgN/A
2:50 pm81 °FPassing clouds.10 mph37%30.01 "HgN/A
2:20 pm81 °FPassing clouds.8 mph39%30.01 "HgN/A
1:50 pm79 °FPassing clouds.9 mph42%30.01 "HgN/A
1:20 pm77 °FPassing clouds.9 mph47%30.01 "HgN/A
12:50 pm77 °FPassing clouds.8 mph47%30.01 "HgN/A
12:20 pm79 °FScattered clouds.10 mph45%30.04 "HgN/A
11:50 am77 °FScattered clouds.8 mph44%30.04 "HgN/A
11:20 am75 °FScattered clouds.9 mph50%30.04 "HgN/A
10:50 am75 °FPassing clouds.7 mph57%30.04 "HgN/A
10:20 am73 °FPassing clouds.6 mph57%30.04 "HgN/A
9:50 am73 °FPassing clouds.5 mph61%30.04 "HgN/A
8:50 am70 °FSunny.7 mph64%30.04 "Hg10 mi
8:20 am68 °FSunny.6 mph69%30.04 "Hg10 mi
Weather by CustomWeather, © 2019

See weather overview